{"data":{"norad_id":62841,"intl_designator":"2025-019N","name":"STARLINK-11531 [DTC]","alt_names":[],"object_type":"PAYLOAD","status":"ACTIVE","operator":null,"country":"US","launch_date":"2025-01-27","launch_site_code":"AFETR","launch_vehicle":null,"mission":null,"orbit_class":"UNKNOWN","rcs_meters":null,"size_class":null,"mass_kg":null,"dimensions":null,"purposes":["comms"],"wikipedia_slug":null,"has_3d_model":false,"image_url":null,"decayed_at":null,"tle_current":{"epoch":"2026-05-25T05:02:09.374208Z","epoch_age_seconds":50079,"freshness":"FRESH","line1":"1 62841U 25019N   26145.20983072  .00166248  00000+0  12702-2 0  9997","line2":"2 62841  43.0005 204.8984 0001438 273.8248  86.2455 15.70900115 75911","mean_motion":15.70900115,"eccentricity":0.0001438,"inclination_deg":43.0005,"raan_deg":204.8984,"arg_perigee_deg":273.8248,"mean_anomaly_deg":86.2455,"bstar":0.0012702,"rev_number":7591,"period_min":91.667190437503,"perigee_km":355.35483174366,"apogee_km":357.29166251073,"semimajor_km":6734.4602471272,"source":"CELESTRAK","updated_at":"2026-05-25T13:38:19.780593Z"}}}